sat.trackr.live / text

‹ back to catalog

UNKNOWN

NORAD 81036

UNKNOWN UNKNOWN UNKNOWN

§ Identity

Operator
Country
Launch date
Launch site
Launch vehicle
Mass (kg)
RCS (m²)

External: N2YO · Heavens-Above

§ Orbital elements

Epoch: 2026-05-23T15:09:26.853120Z

Period
154.33 min
Inclination
66.1059°
Eccentricity
0.2574735
Mean motion
9.33036877 rev/d
Perigee alt
698.8 km
Apogee alt
5,606.8 km
Semi-major
9,530.9 km
B*
-1.6716e-3
RAAN
252.7698°
Arg perigee
126.1590°
Mean anomaly
260.5928°
Rev number
3,682

§ Raw data

UNKNOWN1 81036U          26143.63156080 -.00000740  00000+0 -16716-2 0  99982 81036  66.1059 252.7698 2574735 126.1590 260.5928  9.33036877 36820

JSON: /api/v1/satellites/81036 · /tle

For live sub-satellite position, see the globe view (requires WebGL).

§ Visibility from observer

Set your observer location to see the next 7 days of passes ≥ 10°. The values pass through the URL so the page stays shareable.

No JS? Fill the form by hand. The geolocation button needs JavaScript.